❰ Current Conditions

Flash Flood Watch
FLASH FLOOD WATCH NOW IN EFFECT THROUGH 6 PM THIS AFTERNOON

Flash Flood Watch issued August 5 at 3:19AM EDT until August 5 at 6:00PM EDT by NWS Boston/Norton MA

The Flash Flood Watch is now in effect for

* Portions of Massachusetts and Rhode Island, including the following areas, in Massachusetts, Central Middlesex MA, Eastern Essex MA, Eastern Norfolk MA, Eastern Plymouth MA, Northern Bristol MA, Southeast Middlesex MA, Southern Bristol MA, Southern Plymouth MA, Suffolk MA, Western Essex MA, Western Norfolk MA and Western Plymouth MA. In Rhode Island, Block Island RI, Bristol RI, Eastern Kent RI, Newport RI, Northwest Providence RI, Southeast Providence RI, Washington RI and Western Kent RI.

* Through this afternoon.

* Periods of showers and a few thunderstorms will continue to bring locally heavy rain to Rhode Island and portions of eastern Massachusetts through late this afternoon. Up to an additional one and a half inches of rain is forecast through this afternoon, with total rainfall ranging between 2 to 3 inches. Locally higher rainfall amounts are possible in areas that experience persistent heavy rains.

* Heavy rainfall may cause street flooding in urban areas and in low-lying and poor drainage areas. It may also result in rapid rises on small streams and creeks.

* PRECAUTIONARY/PREPAREDNESS ACTIONS...You should monitor later forecasts and be prepared to take action should Flash Flood Warnings be issued.
NWS Regional Weather Roundup - New England Area
REGIONAL WEATHER ROUNDUP
NATIONAL WEATHER SERVICE BOSTON/NORTON MA
600 AM EDT THU AUG 05 2021

NOTE:  "FAIR" INDICATES FEW OR NO CLOUDS BELOW 12,000 FEET WITH NO 
SIGNIFICANT WEATHER AND/OR OBSTRUCTIONS TO VISIBILITY.

MAZALL-051100-
EASTERN MASSACHUSETTS
  
CITY           SKY/WX    TMP DP  RH WIND       PRES   REMARKS
BOSTON         LGT RAIN  66  63  90 N13       30.09R FOG              
BEVERLY        LGT RAIN  64  63  96 N8        30.09R FOG              
LAWRENCE       CLOUDY    64  63  96 N6        30.13R FOG              
BEDFORD        CLOUDY    64  63  96 N7        30.09S                  
BLUE HILL      NOT AVBL                                               
NORWOOD        CLOUDY    66  63  90 VRB5      30.08F                  
MARSHFIELD     LGT RAIN  66  64  94 VRB6      30.07S                  
PLYMOUTH       NOT AVBL                                               
TAUNTON        LGT RAIN  65  64  97 CALM      30.07S                  
NEW BEDFORD    HVY RAIN  66  65  96 N3        30.06R FOG              
$$

MAZALL-051100-
CAPE COD AND THE ISLANDS
  
CITY           SKY/WX    TMP DP  RH WIND       PRES   REMARKS
FALMOUTH       DRIZZLE   66  66 100 NE6       30.06S                  
HYANNIS        CLOUDY    73  73 100 S12       30.05R                  
CHATHAM        MOCLDY    71  70  96 VRB7G20   30.08R                  
PROVINCETOWN   LGT RAIN  67  67 100 E9        30.07S FOG              
NANTUCKET      LGT RAIN  73  71  93 S18       30.08R                  
MARTHAS VNYRD  CLOUDY    70  70 100 S8        30.06R                  
$$
 
MAZALL-051100-
CENTRAL AND WESTERN MASSACHUSETTS
  
CITY           SKY/WX    TMP DP  RH WIND       PRES   REMARKS
WORCESTER      CLOUDY    61  60  97 NE7       30.11S FOG              
FITCHBURG      LGT RAIN  63  60  90 N7        30.12S                  
ORANGE         CLOUDY    64  61  90 N5        30.13R                  
SPRINGFIELD    CLOUDY    64  63  96 NE3       30.09R                  
WESTFIELD      CLOUDY    64  63  96 N6        30.10R                  
NORTH ADAMS    CLOUDY    61  58  90 CALM      30.13S                  
PITTSFIELD     CLOUDY    62  58  86 CALM      30.12S                  
$$
 
RIZALL-051100-
RHODE ISLAND
  
CITY           SKY/WX    TMP DP  RH WIND       PRES   REMARKS
PROVIDENCE     LGT RAIN  65  63  93 N9        30.08R FOG              
NEWPORT        LGT RAIN  65  64  97 N10       30.06R                  
BLOCK ISLAND   LGT RAIN  64  63  96 NE7       30.06R FOG              
SMITHFIELD     RAIN      62  62 100 NE8       30.10R FOG              
WESTERLY       RAIN      62  62 100 N6        30.06R FOG              
$$
 
CTZALL-051100-
CONNECTICUT
  
CITY           SKY/WX    TMP DP  RH WIND       PRES   REMARKS
BRADLEY INTL   CLOUDY    66  61  84 N7        30.09S                  
HARTFORD       CLOUDY    65  62  90 N10       30.08S FOG              
BRIDGEPORT     CLOUDY    66  63  90 N6        30.07R                  
DANBURY        CLOUDY    68  61  78 N6        30.10R                  
GROTON         CLOUDY    64  63  96 N8        30.05R                  
NEW HAVEN      CLOUDY    67  65  93 N10       30.07R                  
CHESTER        CLOUDY    64  64 100 N5        30.08R                  
MERIDEN        CLOUDY    65  61  87 N7        30.08R                  
WILLIMANTIC    CLOUDY    63  61  93 NE5       30.09R                  
OXFORD         CLOUDY    63  32  31 N8        30.10R HAZE             
$$

MEZ002-015-021-024-NHZ003-005-008-011-012-014-VTZ005-008-051100-
NORTHERN NEW ENGLAND
  
CITY           SKY/WX    TMP DP  RH WIND       PRES   REMARKS
PORTLAND ME    LGT RAIN  62  62 100 N7        30.14S FOG              
BANGOR ME      LGT RAIN  63  62  97 N5        30.16F                  
CONCORD NH     CLOUDY    63  60  90 CALM      30.13S                  
MANCHESTER NH  LGT RAIN  64  60  87 N8        30.11S FOG              
NASHUA NH      LGT RAIN  63  63 100 NW5       30.13S FOG              
PORTSMOUTH NH  NOT AVBL                                               
JAFFREY NH     CLOUDY    63  63 100 MISG      30.14S FOG              
KEENE NH       CLOUDY    64  61  90 CALM      30.13S                  
BURLINGTON VT  MOCLDY    65  59  81 E3        30.12S                  
MT. WASHINGTON PTCLDY    48  43  81 E8          N/A                   
$$

NYZ052-076-051100-
EASTERN NEW YORK
  
CITY           SKY/WX    TMP DP  RH WIND       PRES   REMARKS
ALBANY         MOCLDY    58  58 100 CALM      30.12R                  
NEW YORK CITY  CLOUDY    70  60  70 NE7       30.07R                  
$$
 
ANZALL-051100-
MARINE OBSERVATIONS
  
STATION/POSITION TIME  TEMP    WIND        PRES    VSBY  WAVE
                       AIR SEA DIR/SP/G                  HT/PER
                 (UTC) (F)     (DEG/KT/KT) (MB)    (MI)  (FT/S)
BOSTON BUOY      0940      67   20/ 12/ 16 1018.9R
BUZZARDS BAY     0900           20/ 13/ 14 1018.3F
NANTUCKET SOUND  0950          170/ 17/ 23 1017.8R         2/ 3
MASS BAY-STELLWA 0904   65 67   30/ 14/ 17 1018.2F  1 7/8  4/ 5
ISLE OF SHOALS   0900   63      30/ 14/ 16 1018.9F
S OF BLOCK IS    0926      68                N/A           5/ 8
$$

......................KEY.........................
  SKY/WX - SKY CONDITION/PRESENT WEATHER
  TMP    - TEMPERATURE IN FAHRENHEIT
  DWPT   - DEWPOINT IN FAHRENHEIT
  RH     - RELATIVE HUMIDITY IN PERCENT
  WIND   - DIRECTION AND SPEED IN MPH
  PRES   - MEAN SEA LEVEL PRESSURE IN INCHES OF HG
  WCI    - WIND CHILL INDEX
  VSB    - VISIBILITY IN MILES
  HX     - HEAT INDEX
  TC     - TEMPERATURE IN CELSIUS
  VRB    - VARIABLE WIND DIRECTION
  N/A    - NOT AVAILABLE